Kosmos-678

operational
NORAD ID: 7436 Int'l Des: 1974-072 Owner: GUKOSR Country: SU
LEOCIRCULAR

关于 Kosmos-678

正在加载描述...

实时位置

正在加载3D地球...

即将过境

高度历史

Altitude vs Time

uPlot chart will show altitude changes over time

两行轨道根数

1 7436U 74072B 26062.18899832 .00000010 00000-0 18749-3 0 9997
2 7436 74.0348 131.7774 0041529 167.3943 224.1948 12.41798646332446
Epoch: Mar 3, 2026 • Age: 15 hours

当前状态

高度 1474.1 km
速度 7.14 km/s
星下点 -11.80°S, 72.74°W
类型 other

大型星座

Loading constellations...